Torna al catalogo

STARLINK-38059

AttivoComunicazioniSSO
NORAD 69714·PAYLOAD·🇺🇸 United States

Lanciato Jun 28, 2026 da Vandenberg Space Force Base

Loading…

Prossimi Passaggi (prossime 24 ore)

TLE

AggiornatoSource: CelesTrak SupGP

Epoca: Sep 15, 2026, 04:06 UTC

1 69714C 26147L   26258.17131944 -.00048666  00000+0 -15109-2 0  2587
2 69714  97.2836 294.5956 0000913 102.0037 359.9615 15.33459786    10

Traccia STARLINK-38059 in tempo reale con AllMySat

Download on the App Store